User: anonymous   Login
Location: Unspecified
(0.0000°N, 0.0000°E)
Time: 05:17:26
(UTC+00:00)
Language:

TIANWANG 1A (TW-1A) - Orbit

View from above orbital plane
View from above orbital plane
View from above satellite
View from above satellite

Ground track
Ground track

The orbit data is extracted from the following two-line orbital elements,

1 40928U 15051D   19083.81550066  .00002670  00000-0  68323-4 0  9998
2 40928  97.1549 117.0034 0012396  34.4778  51.9911 15.40218476195953
Epoch (UTC): 24 March 2019 19:34:19
Eccentricity: 0.0012396
inclination: 97.1549°
perigee height: 437 km
apogee height: 454 km
right ascension of ascending node: 117.0034°
argument of perigee: 34.4778°
revolutions per day: 15.40218476
mean anomaly at epoch: 51.9911°
orbit number at epoch: 19595

The dashed part of the orbit path shows where the satellite is in the earth's shadow,  

DLR